Weather Roundup
Issued by NWS

Home | Current Version | Previous Version | Text Only | Print | Product List | Glossary On
Versions: 1 2 3 4 5 6 7 8 9 10 11 12 13 14 15 16 17 18 19 20 21 22 23 24 25 26 27 28 29 30 31 32 33 34 35 36 37 38 39 40 41 42 43 44 45 46 47 48 49 50
000
NZUS93 KARX 021310
HRRWXR

CURRENT HOURLY OBSERVATIONS ACROSS
MUCH OF THE UPPER MISSISSIPPI VALLEY
NATIONAL WEATHER SERVICE LA CROSSE WI
800 AM CDT WED SEP 02 2015


...SOUTHEAST MINNESOTA...


CITY           SKY/WX    TMP DP  RH WIND       PRES   REMARKS
ROCHESTER      CLOUDY    70  68  93 S9        29.97F FOG
ROCHESTER/MAYO CLOUDY    70  70 100 E8        29.95F
WINONA         CLOUDY    73  70  88 N7        29.97
AUSTIN         PTSUNNY   72  70  94 S6        29.95F FOG
ALBERT LEA     MOSUNNY   70  70 100 S6        29.95F FOG
DODGE CENTER   CLOUDY    70  66  88 S7        29.96S
PRESTON        LGT RAIN  68  66  93 CALM      29.99S
OWATONNA       SUNNY     72  66  83 SE12      29.94S
FARIBAULT      CLOUDY    70  66  88 S8        29.94R
$$

...ELSEWHERE IN MINNESOTA...


CITY           SKY/WX    TMP DP  RH WIND       PRES   REMARKS
MINNEAPOLIS    CLOUDY    71  67  87 E12       29.93R
INTNL FALLS    MOSUNNY   63  59  87 SE7       29.92S
DULUTH         TSTM      65  63  93 E12       29.99R VSB 3/4
RED WING       TSTM      70  66  88 E5        29.92F
REDWOOD FALLS  SUNNY     68  65  90 S9        29.88R
MANKATO          N/A    N/A N/A N/A MISG        N/A
WORTHINGTON    SUNNY     68  63  83 S9        29.91R
FAIRMONT       SUNNY     72  63  73 S10       29.92S
$$

...SOUTHWEST WISCONSIN...


CITY           SKY/WX    TMP DP  RH WIND       PRES   REMARKS
LA CROSSE      PTSUNNY   75  69  81 S7        29.96S
PRAIRIE DU CHI PTSUNNY   74  67  79 E5        29.98F
BOSCOBEL       FOG       69  68  96 CALM      30.00F VSB 1/4
LONE ROCK      MOSUNNY   71  68  90 E3        30.02S FOG
PLATTEVILLE    MOSUNNY   70  69  96 SE7       30.04S
FORT MC COY    CLOUDY    69  67  94 CALM      29.98S
CAMP DOUGLAS   PTSUNNY   70  70 100 SE3       29.99S
VIROQUA          N/A     73  69  89 S7        30.01S
WIS DELLS      MOSUNNY   72  67  86 CALM      30.02S
$$

...ELSEWHERE IN WISCONSIN...


CITY           SKY/WX    TMP DP  RH WIND       PRES   REMARKS
MILWAUKEE      MOSUNNY   75  68  78 SW5       30.04R
MADISON        PTSUNNY   73  69  87 S6        30.03R
GREEN BAY      SUNNY     74  72  93 CALM      29.99S FOG
EAU CLAIRE     CLOUDY    73  71  93 CALM      29.97R
BLACK RVR FLS  FAIR      70  70 100 CALM      29.97S FOG
MEDFORD        CLOUDY    71  71  99 SW5       30.01R FOG
WAUSAU         CLOUDY    72  71  97 SW3       29.99R FOG
WIS RAPIDS     PTSUNNY   74  70  87 SW5       30.01S FOG
MARSHFIELD     FOG       71  68  90 S3        30.00S VSB 1/4
RICE LAKE      RAIN      66  64  91 CALM      30.00S
$$

...NORTHEAST IOWA...


CITY           SKY/WX    TMP DP  RH WIND       PRES   REMARKS
DECORAH        CLOUDY    70  68  94 S8        29.99S
MASON CITY     CLOUDY    71  66  84 VRB3      29.98R
CHARLES CITY   CLOUDY    70  70 100 CALM      29.99R FOG
OELWEIN          N/A     70  68  94 VRB3      30.00R
$$

...ELSEWHERE IN IOWA...


CITY           SKY/WX    TMP DP  RH WIND       PRES   REMARKS
DES MOINES     CLOUDY    72  67  84 SE10      30.00F
IOWA CITY      CLOUDY    69  68  96 CALM      30.05R FOG
FORT DODGE     SUNNY     72  63  73 S13G18    29.96S
$$

...NORTHERN ILLINOIS...


CITY           SKY/WX    TMP DP  RH WIND       PRES   REMARKS
CHICAGO-OHARE  MOSUNNY   74  69  85 W6        30.06R
CHICAGO-MIDWAY MOSUNNY   76  69  79 W6        30.07R
MOLINE         MOSUNNY   74  68  81 CALM      30.06R
ROCKFORD       PTSUNNY   72  68  87 S6        30.07R FOG
PEORIA         MOSUNNY   75  70  84 S6        30.09R HAZE
$$

NOTE: "FAIR" INDICATES FEW OR NO CLOUDS BELOW 12,000 FEET WITH NO
SIGNIFICANT WEATHER AND/OR OBSTRUCTIONS TO VISIBILITY. WIND
SPEEDS ARE IN MILES-PER-HOUR.



USA.gov is the U.S. government's official web portal to all federal, state and local government web resources and services.